Overview Statistics Trail Chart Weather Telemetry Raw packets
 

This is the latest recevied weather packets stored in our database for station/object KA1JKB. If no packets are shown the sender has not sent any weather packets the latest 10 day(s).

<< 22 23 24 25 26 27 28 >>
Time Temp. Humidity Pressure Rain* Wind** Luminosity Snow
1788291427 31.11° C 79% 1012.9 hPa 0 mm - 331 W/m² -
1788291121 31.11° C 78% 1012.9 hPa 0 mm - 337 W/m² -
1788290820 31.67° C 76% 1012.8 hPa 0 mm - 297 W/m² -
1788290515 31.67° C 76% 1012.9 hPa 0 mm - 784 W/m² -
1788290212 31.67° C 79% 1012.9 hPa 0 mm - 313 W/m² -
1788289908 31.67° C 76% 1012.9 hPa 0 mm - 688 W/m² -
1788289604 31.67° C 77% 1013 hPa 0 mm - 675 W/m² -
1788289303 31.11° C 79% 1013.1 hPa 0 mm - 494 W/m² -
1788289002 31.11° C 78% 1013.1 hPa 0 mm - 748 W/m² -
1788288699 30.56° C 80% 1013.1 hPa 0 mm - 304 W/m² -
1788288396 31.11° C 79% 1012.9 hPa 0 mm - 787 W/m² -
1788288091 30.56° C 79% 1013.2 hPa 0 mm - 542 W/m² -
1788287786 30.56° C 80% 1013.1 hPa 0 mm - 291 W/m² -
1788287499 30.56° C 78% 1013.1 hPa 0 mm - 305 W/m² -
1788287177 31.11° C 78% 1013.1 hPa 0 mm - 540 W/m² -
1788286877 31.11° C 77% 1013.1 hPa 0 mm - 383 W/m² -
1788286577 31.11° C 77% 1012.9 hPa 0 mm - 750 W/m² -
1788286276 31.11° C 78% 1012.8 hPa 0 mm - 378 W/m² -
1788285976 31.11° C 77% 1012.8 hPa 0 mm - 651 W/m² -
1788285670 31.67° C 76% 1012.6 hPa 0 mm - 637 W/m² -
1788285369 31.67° C 76% 1012.8 hPa 0 mm - 687 W/m² -
1788285063 31.67° C 78% 1012.8 hPa 0 mm - 671 W/m² -
1788284759 31.67° C 76% 1012.8 hPa 0 mm - 684 W/m² -
1788284456 31.67° C 77% 1012.8 hPa 0 mm - 669 W/m² -
1788284155 31.11° C 79% 1012.7 hPa 0 mm - 667 W/m² -

* Rain latest hour (hover to see other rain measurements)
** Current wind speed in m/s (hover to see current wind gust speed)